Back to catalog

COSMOS 2251 DEB

AliveLEO
NORAD 34953·DEBRIS·🇷🇺 Russia

Launched Jun 16, 1993 from Plesetsk Cosmodrome

Loading…

Next Passes (next 24 hours)

TLE

FreshSource: Space-Track

Epoch: Sep 14, 2026, 08:11 UTC

1 34953U 93036AEG 26257.34150922  .00003059  00000-0  48687-3 0  9996
2 34953  74.0907 214.5250 0053440 135.7816  15.9528 14.71511290921798

Track COSMOS 2251 DEB in real time with AllMySat

Download on the App Store